Location: *
(4.4710°N, 32.8130°E)
Time: 03:58:32
(UTC+00:00)

Daily predictions for brighter satellites

Satellite Brightness Start Highest point End
(mag) Time Altitude Azimuth Time Altitude Azimuth Time Altitude Azimuth
Cosmos 2263 Rocket 4.3 00:57:38 22° ENE 00:57:38 22° ENE 00:59:58 10° NE
ARIANE 5 R/B 4.0 01:20:23 57° E 01:20:23 57° E 01:29:36 10° E
Milstar 3 4.0 01:25:57 28° SSE 01:25:57 28° SSE 01:29:42 10° SE
SWIFT 4.0 01:53:51 27° NNE 01:53:51 27° NNE 01:56:26 10° NE
Cosmos 1741 Rocket 4.3 01:49:58 10° N 01:55:13 66° ENE 02:00:30 10° SSE
CZ-3A R/B 2.6 01:57:11 65° NNW 01:57:43 74° NNE 02:10:59 10° ESE
Cosmos 921 Rocket 4.0 01:58:39 36° SE 01:59:35 42° E 02:03:32 10° NNE
Cosmos 374 Rocket 4.4 02:08:28 86° SE 02:08:28 86° SE 02:12:25 10° SSE
Meteor 2-10 Rocket 3.4 02:09:17 48° SSW 02:10:46 78° W 02:16:09 10° N
Okean O Rocket 3.9 02:07:24 10° NE 02:10:52 23° ESE 02:14:21 10° SSE
ARIANE 5 R/B 3.8 02:13:04 22° SSE 02:13:04 22° SSE 02:16:08 10° ESE
CZ-3 R/B 4.0 01:58:26 30° W 02:12:35 49° NW 02:21:49 10° NE
Cosmos 489 Rocket 4.4 02:09:15 21° S 02:13:39 88° E 02:20:00 10° NNE
Meteor 1-31 Rocket 3.4 02:09:57 10° N 02:12:45 44° NNW 02:12:45 44° NNW
Cosmos 1892 2.8 02:11:04 10° N 02:14:54 72° E 02:18:10 14° S
PAYLOAD A 4.3 02:11:46 10° N 02:16:07 43° WNW 02:16:07 43° WNW
Cosmos 1766 Rocket 3.4 02:13:19 10° N 02:17:45 70° W 02:19:25 37° SSW
Cosmos 304 Rocket 4.2 02:19:13 41° WNW 02:19:13 41° WNW 02:23:10 10° N
Cosmos 1844 Rocket 4.1 02:15:16 10° S 02:20:22 36° ESE 02:25:28 10° NE
SL-16 R/B 2.3 02:14:56 10° N 02:20:34 74° ENE 02:26:13 10° SSE
Milstar 3 Cent rocket 2.8 02:21:33 31° SSW 02:21:33 31° SSW 02:26:10 10° SE
ATLAS 2AS CENTAUR R/B 2.5 02:16:10 10° NNW 02:23:06 85° WSW 02:29:26 10° SSE
Cosmos 2151 2.8 02:19:17 10° NNW 02:23:24 60° W 02:24:15 48° SW
PSLV R/B 3.8 02:20:48 10° N 02:24:54 80° W 02:26:48 31° SSW
Tsikada Rocket 4.4 02:18:52 10° S 02:25:14 66° E 02:31:31 10° NNE
CZ-3C R/B 2.4 02:26:57 14° N 02:26:57 14° N 02:27:48 10° NNE
ATLAS CENTAUR R/B 2.9 02:28:51 10° S 02:33:08 41° ESE 02:37:41 10° NE
CRYOSAT 2 4.3 02:28:23 10° S 02:33:12 59° W 02:38:00 10° NNW
Ariane H10-3 1.3 02:33:16 50° S 02:33:20 50° S 02:35:25 10° E
Cosmos 2346 Rocket 4.4 02:28:29 10° S 02:34:37 88° W 02:40:40 10° N
CZ-2C R/B 3.0 02:32:57 10° NNW 02:37:00 31° WNW 02:37:36 30° W
CZ-4B R/B 3.9 02:32:16 10° NNE 02:37:46 56° ESE 02:43:13 10° S
Cosmos 1816 Rocket 4.5 02:31:48 10° S 02:38:11 87° W 02:44:28 10° N
Ariane 42L Rocket 4.4 02:34:41 26° W 02:38:29 87° S 03:13:11 10° E
Cosmos 2263 Rocket 3.8 02:39:24 16° WNW 02:39:24 16° WNW 02:42:08 10° NW
Abrixas rocket 2.8 02:36:49 11° NNW 02:39:38 52° NE 02:42:37 10° SE
Cosmos 1408 2.9 02:37:25 10° N 02:40:57 67° E 02:44:31 10° S
Cosmos 1464 Rocket 4.2 02:34:46 10° N 02:41:01 74° E 02:47:22 10° S
Lacrosse 5 rocket 1.2 02:40:10 22° SSW 02:42:29 76° ESE 02:46:20 10° NE
Cosmos 2221 3.3 02:43:34 28° W 02:44:09 29° W 02:47:54 10° NNW
USA 267 4.4 02:41:12 10° S 02:45:39 20° SW 02:46:12 19° WSW
Delta 128 3.9 02:48:31 13° WNW 02:52:59 86° SSW 02:58:50 10° ESE
Cosmos 1484 Rocket 2.7 02:49:28 10° N 02:53:20 61° W 02:57:08 10° SSW
PAYLOAD B 4.2 02:48:28 10° N 02:54:00 67° WNW 02:59:33 10° SSW
Ariane H10 2.0 02:51:10 17° W 02:54:29 60° N 02:57:14 10° ENE
Cosmos 1844 4.1 02:49:54 10° S 02:55:24 65° ESE 03:00:52 10° NNE
Cosmos 1869 3.1 02:52:03 10° S 02:55:59 76° W 02:59:54 10° N
Cosmos 1500 Rocket 3.5 02:55:26 10° N 02:59:45 88° W 03:04:06 10° S
Cosmos 1891 Rocket 4.4 02:56:35 10° N 03:02:34 68° W 03:08:41 10° S
DELTA 2 R/B (1) 3.6 03:01:04 13° SW 03:06:05 76° NW 03:11:36 10° NE
Cosmos 1238 Rocket 3.6 03:03:43 10° NW 03:06:32 25° W 03:09:46 10° SSW
SJ-12 4.1 03:02:52 10° N 03:06:50 49° WNW 03:10:47 10° SSW
Cosmos 1513 Rocket 4.4 03:01:23 10° NNW 03:07:20 61° W 03:13:18 10° S
Shenzhou-11 Module 2.3 03:11:59 10° WNW 03:14:34 37° SW 03:17:10 10° SSE
Helios 1A Rocket 4.2 03:11:35 10° NNW 03:14:38 21° WNW 03:17:43 10° SW
SL-24 DEB 4.2 03:10:19 10° S 03:14:59 80° W 03:19:37 10° N
CZ-3B R/B 4.0 03:09:25 10° SSW 03:16:18 46° SE 03:32:23 10° ENE
METEOR-M 4.1 03:11:42 10° N 03:17:01 73° WNW 03:22:20 10° SSW
Cosmos 1340 Rocket 4.1 03:15:42 10° SW 03:18:47 21° W 03:21:54 10° NW
COSMO-SKYMED 1 3.1 03:19:00 10° SSE 03:23:18 67° ENE 03:27:35 10° N
Intelsat 5-1 Rocket 2.8 03:21:54 10° SW 03:27:12 36° SSE 03:29:54 10° E
Centaur D AC-28 2.2 03:20:34 10° SW 03:27:30 67° SSE 03:30:58 10° ENE
Cosmos 2278 Rocket 4.3 03:22:38 10° SSE 03:27:32 31° ESE 03:32:25 10° NE
NOSS 3-4 (A) 4.4 03:21:33 10° NW 03:28:55 46° WSW 03:36:35 10° S
NOSS 3-4 (C) 4.3 03:21:38 10° NW 03:29:01 46° WSW 03:36:42 10° S
ARIANE 5 DEB (SYLDA) 3.7 03:23:18 10° W 03:31:30 77° N 03:34:59 10° E
ARIANE 44P R/B 4.2 03:43:02 10° W 04:10:57 79° S 04:15:00 10° ESE
